Username
Password
 
Info Terbaru :
  

Jackpot hanya dapat di beli di awal sebelum periode tersebut berjalan dan jika berhasil maka anda dapat melihat di sisi kiri bawah atau kiri atas akan terdapat notifikasi bahwa jackpot anda berhasil di beli.

Jika anda membeli jackpot di tengah permainan maka pembelian jackpot akan berlaku untuk periode selanjutnya.

Jackpot Winner Ceme

Jackpot dilihat dari gabungan kartu pemain dengan kartu bandar. Bandar harus membeli jackpot sebanyak jumlah player yang sedang duduk. Sebagai contoh bila terdapat 3 pemain duduk bermain, dan bandar memutuskan untuk membeli jackpot Rp 1.000, maka pada periode tersebut bandar akan membeli jackpot sebanyak 3xRp1.000 = Rp3.000.

Jackpot bukanlah suatu keharusan untuk dibeli, namun kami memberikan suatu fitur tambahan untuk member tercinta dari www.depokceme.com.

Terdapat tiga pilihan harga jackpot yang bisa anda beli yaitu :100,500 dan 1000 rupiah.

Hadiah dari Multi jackpot system www.depokceme.com


  • Murni Kecil x 50 harga jackpot yang anda beli.

    (contoh:anda membeli 1000 maka:1000 X 50 = 50.000)

  • Murni Besar x 50 harga jackpot yang anda beli

    (contoh:anda membeli 1000 maka:1000 X 50 = 50.000)

  • BALAK x 200 harga jackpot yang anda beli

    (contoh:anda membeli 1000 maka:1000 X 200 = 200.000)

  • ENAM DEWA x 6666 harga jackpot yang anda beli

    (contoh:anda membeli 1000 maka:1000 X 6666 = 6.666.000)


Demikian adalah penjelasan dari Multi Jackpot www.depokceme.com terima kasih dan selamat bermain salam hoki dari kami


Jackpot Winner

TOP ENAM DEWA
No. Tanggal Nama Price Win
1 23/03 01:21 DNJAMAIK murni enam 6,666,000
2 23/03 01:19 GOJEK78 murni enam 6,666,000
3 23/03 01:19 IMAH25 murni enam 6,666,000
4 23/03 01:02 B84ER99383 murni enam 6,666,000
5 23/03 01:00 BADEMHEHE murni enam 666,600
TOP BALAK
No. Tanggal Nama Price Win
1 23/03 01:31 STEMPLET balak 200,000
2 23/03 01:31 JSO88 balak 20,000
3 23/03 01:31 KRN120 balak 200,000
4 23/03 01:31 ICELAU3299 balak 200,000
5 23/03 01:30 DMNYOU25 balak 100,000
LATEST JACKPOT
No. Tanggal Nama Price Win
1 23/03 01:31 MUH6030 murni kecil 50,000
2 23/03 01:31 CANGCUT32 murni kecil 25,000
3 23/03 01:31 JKT92 murni besar 25,000
4 23/03 01:31 STEMPLET balak 200,000
5 23/03 01:31 JSO88 balak 20,000
6 23/03 01:31 JERY02 murni kecil 25,000
7 23/03 01:31 SHEEQA12 murni kecil 50,000
8 23/03 01:31 ELDEN murni kecil 25,000
9 23/03 01:31 LAMPAR00 murni kecil 5,000
10 23/03 01:31 ERLIN10 murni kecil 25,000
11 23/03 01:31 YOTAM90 murni kecil 5,000
12 23/03 01:31 YTTA12 murni kecil 50,000
13 23/03 01:31 SNI54327 murni kecil 5,000
14 23/03 01:31 KRN120 balak 200,000
15 23/03 01:31 ICELAU3299 balak 200,000
16 23/03 01:31 D33N2321 murni besar 50,000
17 23/03 01:31 WIDHI07 murni besar 50,000
18 23/03 01:30 DDA60D62 murni besar 50,000
19 23/03 01:30 MARSYAHBAE murni besar 50,000
20 23/03 01:30 W4_N murni kecil 50,000
21 23/03 01:30 DMNYOU25 balak 100,000
22 23/03 01:30 BOWO32 balak 200,000
23 23/03 01:30 DAHLANDA murni besar 50,000
24 23/03 01:30 CEMEK murni besar 50,000
25 23/03 01:30 LAUDYA1 murni besar 5,000
26 23/03 01:30 KIPAS1 murni kecil 50,000
27 23/03 01:30 PAPI99 murni kecil 25,000
28 23/03 01:30 BTR371 murni kecil 50,000
29 23/03 01:30 PANTAR84 murni kecil 50,000
30 23/03 01:30 SAGE murni kecil 25,000
31 23/03 01:30 BAGREX84 murni kecil 5,000
32 23/03 01:30 QQPA11 murni kecil 50,000
33 23/03 01:30 STENLY05 murni kecil 25,000
34 23/03 01:30 B18IE406 balak 200,000
35 23/03 01:30 LISJEPANG murni kecil 25,000
36 23/03 01:30 CHOKI_80 murni kecil 50,000
37 23/03 01:30 CILENGGESS murni besar 50,000
38 23/03 01:30 G0021 murni besar 50,000
39 23/03 01:29 TOMYFINA murni kecil 50,000
40 23/03 01:29 ARIMP04 murni besar 50,000
41 23/03 01:29 IP1N85 balak 20,000
42 23/03 01:29 RZN521 murni kecil 50,000
43 23/03 01:29 MASTERJEK1 balak 100,000
44 23/03 01:29 BAWOERRRR balak 200,000
45 23/03 01:29 PONKER89 balak 100,000
46 23/03 01:29 BAKOYO23 murni besar 50,000
47 23/03 01:29 RATTIH99 murni besar 50,000
48 23/03 01:29 BEBEKABG murni kecil 50,000
49 23/03 01:29 JHONTHEA12 murni besar 25,000
50 23/03 01:29 RAIL_34 murni besar 50,000


Situs Poker Online
Dewapoker.com Hadir untuk semua pecinta permainan kartu poker online yang khususnya berada di asia. Dengan system teknology baru dan server kecepatan tinggi akan membuat permainan poker anda lebih seru dan menarik bersama teman2x anda maupun saingan anda. Cukup lakukan login dan langsung bermain tanpa download. Dewapoker.com dengan encrypsi server yang tinggi akan menjamin keamanan data para member.
Terms & Conditions Link Alternatif Cara Bermain Video Dewapoker
© Copyright 2019 Dewa Poker. All right reserved.